Location: Unspecified
(35.7250°N, 0.0000°E)
Time: 03:30:20
(UTC+00:00)

Vanguard 1 - Pass Details

Date: 30 June 2019
Orbit: 653 x 3830 km, 34.3° (Epoch: 12 October)

Event Time Altitude Azimuth Distance (km) Brightness Sun altitude
Rises 20:53:03 0° 198° (SSW) 7,122 14.2 -15.9°
Reaches altitude 10° 20:58:35 10° 188° (S) 6,450 13.9 -16.6°
Maximum altitude 21:16:09 30° 136° (SE) 5,375 13.2 -19.0°
Drops below altitude 10° 21:33:24 10° 85° (E) 6,442 13.9 -21.2°
Sets 21:38:45 0° 76° (ENE) 7,127 14.2 -21.9°
